Wind_Speed
48 48 49 48 48 47 46 44 44 43 42 41 40 39 38 36 34 33 31 30 28 26 25 24 22 21 22 21 20 18 17 15 15 15 15 14 13 13 13 13 12 11 11 11 10 10 10 10 10 10 11 10 10 10 11 10 9 7 6 5 5 5 6 7 9 9 8 9 11 11 11 13 15 15 16 17 18 19 21 22 24 25 25 24 23
47 48 48 48 48 48 47 46 45 44 44 43 42 41 39 38 36 34 33 32 31 29 28 27 26 24 23 22 21 20 19 18 17 16 16 16 16 15 14 14 13 13 13 12 11 11 11 11 11 11 12 12 11 11 12 11 10 9 7 6 6 7 9 9 11 12 10 10 11 12 11 13 15 15 16 18 18 19 20 21 21 21 20 19 19
47 47 46 46 47 48 48 47 47 46 45 45 44 43 41 39 38 37 35 34 33 31 30 29 29 28 27 25 24 22 21 20 19 18 17 17 18 17 17 15 14 13 13 13 12 11 12 11 11 11 11 12 12 11 11 11 11 10 9 9 10 10 11 12 13 14 14 13 14 14 14 15 16 15 15 17 18 19 20 20 19 18 17 17 18
46 46 46 45 46 47 48 48 48 48 47 46 45 44 43 41 40 39 37 36 35 33 31 30 30 30 30 29 27 25 23 22 21 21 19 18 18 18 18 18 16 15 13 13 14 13 13 13 12 12 12 12 13 13 13 12 11 12 11 12 13 13 13 13 14 15 17 19 18 17 17 17 17 16 17 18 19 20 20 21 21 20 20 19 20
46 46 45 45 45 46 48 49 49 50 48 47 46 45 44 43 42 40 39 38 37 35 34 32 32 32 32 31 30 28 26 24 23 23 22 21 19 18 18 18 18 17 15 14 14 15 15 15 14 14 14 14 14 14 14 13 12 13 14 15 16 16 16 16 16 17 19 22 21 19 18 18 18 18 19 21 23 23 23 23 23 22 22 22 23
44 44 43 44 45 46 47 49 50 51 50 48 46 45 45 44 43 42 41 40 38 37 36 35 34 33 33 32 31 30 28 27 25 24 24 23 22 20 19 18 18 18 18 16 15 15 16 16 15 15 16 16 16 15 15 14 14 14 15 15 16 17 18 18 18 19 20 20 20 20 18 18 20 21 21 22 24 26 26 25 23 23 24 25 27
42 41 41 42 44 46 47 48 50 51 50 49 47 46 46 45 44 43 41 41 40 39 38 37 36 34 34 33 32 31 30 29 28 26 25 25 24 23 21 20 19 19 18 18 17 16 16 16 16 16 17 17 17 17 16 16 16 16 16 15 15 17 18 18 17 18 19 19 19 20 20 20 22 23 23 23 25 26 25 26 25 24 26 29 29
43 42 41 42 43 45 46 47 49 50 50 48 48 47 46 45 45 43 42 41 41 40 40 38 37 35 34 34 33 32 31 31 30 29 28 27 26 25 24 22 21 20 20 19 19 18 17 17 17 17 17 17 17 17 18 18 17 17 17 16 16 16 17 17 16 17 18 19 19 20 22 23 24 24 24 25 26 25 24 24 25 26 28 30 30
45 43 42 43 43 43 44 46 48 49 49 48 48 48 47 46 45 44 43 42 41 41 41 40 38 37 35 34 33 33 33 32 32 31 30 29 28 27 26 25 23 22 21 20 20 19 18 18 18 18 18 18 18 18 19 19 19 18 18 17 17 17 17 16 16 16 17 19 20 21 23 25 24 25 26 26 26 26 25 24 25 27 29 30 30
45 44 44 45 43 41 42 44 47 48 49 48 48 48 47 46 45 45 44 43 41 41 41 41 40 38 37 35 34 34 34 33 33 32 31 30 30 29 28 27 26 24 23 22 21 20 19 19 18 18 19 19 18 17 17 17 18 18 18 18 18 18 18 17 17 17 18 20 22 22 24 26 25 25 26 26 27 27 26 26 27 28 29 29 27
44 44 44 44 44 42 42 43 46 47 49 49 48 47 47 46 45 45 44 43 41 40 40 41 41 40 38 37 36 35 34 33 32 32 32 31 31 30 30 29 27 27 25 24 23 21 20 20 19 19 19 19 19 17 16 16 16 17 18 18 18 18 19 19 19 20 21 22 23 24 26 27 25 25 26 26 26 26 27 28 29 28 28 28 25
43 45 44 42 42 43 43 43 45 47 49 50 49 47 47 46 46 45 45 44 42 40 39 40 41 41 39 38 37 35 34 32 30 30 31 31 31 31 30 29 29 28 28 26 25 23 22 21 20 20 19 19 21 21 20 19 19 19 19 18 19 20 20 21 22 22 23 24 25 25 26 27 26 25 24 24 25 26 27 28 27 25 24 24 24
37 39 42 41 42 44 44 43 45 47 48 50 50 48 47 47 46 46 45 44 43 41 40 39 40 41 40 39 37 35 33 31 29 29 29 29 29 29 30 30 30 29 29 28 27 26 25 24 23 22 21 19 21 23 24 24 24 23 22 21 21 22 22 22 22 22 23 24 25 26 25 25 25 24 22 21 23 25 25 25 24 23 22 22 23
35 34 34 35 37 42 45 45 45 47 48 48 49 49 49 48 48 47 46 45 44 43 41 39 39 40 41 39 37 36 34 31 29 27 27 26 27 28 29 29 30 30 30 29 29 28 27 26 25 24 23 22 22 23 24 24 25 25 24 24 23 22 21 21 22 22 23 24 25 25 23 21 22 23 20 19 21 22 23 23 22 22 23 23 24
39 39 38 36 36 40 45 47 47 46 47 48 48 49 49 49 49 48 47 46 45 44 43 41 39 39 40 40 38 36 35 33 29 27 25 24 24 25 27 28 29 29 29 29 29 29 28 27 26 25 25 25 25 25 25 25 25 25 25 25 24 22 22 22 22 23 23 24 24 24 22 19 20 22 20 19 20 21 21 22 21 22 23 24 25
41 44 46 45 43 43 46 49 48 47 48 48 49 50 51 50 50 49 48 47 46 45 44 43 41 39 39 40 39 37 36 33 31 28 25 23 22 22 24 26 27 28 28 29 29 29 28 28 27 26 26 25 24 25 26 27 27 28 28 27 26 25 24 23 22 23 24 24 23 23 22 20 19 20 20 20 20 20 21 22 22 23 24 25 27
42 45 48 50 48 44 45 50 50 48 48 49 50 51 52 51 51 50 49 48 47 47 46 44 43 41 39 41 41 39 36 34 32 30 27 25 23 22 22 23 24 25 27 29 30 30 29 28 28 27 27 26 24 23 23 26 29 30 31 30 29 28 27 24 24 24 25 24 24 23 23 22 20 20 21 21 21 22 23 23 23 23 24 26 26
42 45 48 50 50 47 45 49 51 49 49 50 51 52 52 52 52 51 50 49 48 48 47 45 44 43 41 40 41 41 39 36 33 31 29 27 26 25 23 23 23 24 25 27 30 31 31 30 29 29 28 27 26 24 23 24 26 29 30 30 30 30 28 25 25 25 25 25 25 25 25 22 21 21 21 22 22 23 24 24 24 24 25 25 25
40 44 49 50 50 48 46 47 51 52 51 51 52 52 52 51 51 51 51 50 48 47 46 45 45 44 43 41 40 41 41 40 36 33 30 29 28 27 25 25 25 24 24 26 29 31 32 33 32 32 31 30 29 28 27 26 26 27 28 29 31 31 28 26 26 26 27 27 27 27 25 22 20 21 22 22 23 24 24 24 24 24 25 25 25
39 43 47 47 48 48 46 47 51 53 52 52 51 51 51 51 50 51 51 50 47 46 46 46 45 45 44 43 41 40 41 41 40 37 33 31 30 29 28 28 28 28 27 27 28 29 30 32 33 34 34 33 32 31 31 30 29 29 29 30 32 30 27 27 27 28 29 30 30 28 26 24 22 22 23 23 23 24 23 23 23 24 25 24 24
38 40 42 44 47 47 46 47 52 54 53 51 51 51 51 50 50 50 51 50 48 46 45 45 45 44 44 43 42 41 40 40 40 40 39 36 34 32 32 33 32 31 31 30 30 29 28 29 30 31 32 33 33 33 33 32 32 32 32 33 32 29 29 29 29 29 30 31 31 29 28 27 25 23 23 23 24 24 24 24 25 25 24 23 22
39 40 40 41 44 47 47 48 52 54 52 51 51 51 51 50 49 49 50 50 49 48 46 44 44 43 43 43 42 42 41 39 38 39 40 40 39 38 37 37 36 34 34 33 33 31 29 27 27 26 27 29 30 31 32 33 33 34 34 33 32 31 31 31 30 30 31 31 31 30 29 28 27 26 24 23 23 25 26 26 26 25 24 23 23
39 41 42 42 43 45 48 49 52 53 52 51 51 51 50 49 49 48 49 49 50 49 47 45 43 43 42 42 42 41 40 39 38 37 37 38 39 40 40 39 37 36 35 35 33 30 28 27 25 24 24 25 26 28 29 30 31 32 32 32 32 31 31 30 30 30 30 30 31 31 31 30 29 28 26 24 24 25 27 27 25 24 23 23 23
39 42 44 45 44 45 47 49 51 52 51 50 50 49 49 49 48 48 48 49 50 50 48 47 44 43 42 42 41 40 39 38 37 36 34 34 34 35 36 36 34 34 34 33 31 29 28 26 25 24 24 24 25 25 25 26 27 28 28 27 28 28 28 29 29 29 30 31 31 31 31 31 30 29 27 26 25 26 27 26 24 24 23 22 23
40 44 46 47 47 47 48 50 51 52 51 50 49 48 48 48 48 49 48 48 49 50 50 48 46 44 43 42 41 40 38 36 35 34 32 31 31 31 31 31 30 30 30 30 29 28 28 27 25 25 25 26 26 26 25 25 25 25 24 24 25 26 28 28 29 30 30 30 30 30 29 29 29 29 28 26 26 26 25 24 23 23 22 22 23
39 45 49 50 49 48 49 51 52 52 51 50 49 48 48 49 49 48 48 48 49 50 50 49 48 46 45 43 42 40 37 36 35 33 32 31 30 29 29 28 28 27 28 28 29 30 29 28 28 28 28 28 27 27 26 25 24 24 24 24 25 26 27 27 27 27 27 27 27 26 25 24 25 26 25 24 23 23 22 22 23 24 22 22 22
38 44 49 52 51 50 51 52 52 52 50 48 48 47 47 48 48 48 48 49 50 50 50 49 49 48 47 44 42 40 38 37 36 35 33 33 31 30 29 28 28 28 29 29 30 31 31 31 31 31 30 29 27 27 26 26 25 25 25 26 26 26 26 25 24 23 23 23 22 21 20 20 22 23 23 22 23 24 24 24 25 23 20 20 21
37 42 48 51 52 52 54 54 52 51 49 47 46 46 46 47 47 49 50 50 50 51 51 51 51 51 50 47 44 42 41 40 40 39 37 35 34 32 30 30 29 30 31 30 30 31 33 34 34 33 33 32 30 29 28 28 28 28 28 27 26 26 25 24 22 21 20 19 18 18 18 20 22 22 23 23 25 27 27 24 21 19 17 18 19
37 41 47 51 52 53 54 54 52 50 48 46 44 43 44 45 45 46 48 49 50 50 51 52 52 51 51 49 47 46 45 44 43 42 39 37 35 33 31 30 29 29 29 28 29 32 34 36 36 35 34 34 34 33 33 32 31 30 28 27 27 26 25 24 22 21 20 18 18 18 18 19 22 22 22 24 26 26 24 19 16 15 15 16 15
36 41 48 52 54 54 53 52 51 49 47 45 44 43 43 42 43 44 45 46 47 48 49 49 50 50 49 49 48 47 44 41 40 40 39 37 36 34 32 29 27 26 25 25 28 33 35 35 35 35 34 35 36 36 35 35 33 31 29 28 28 27 25 24 23 22 21 20 21 20 19 22 24 23 23 26 27 24 20 16 14 14 14 13 13
39 44 51 53 53 54 53 50 49 47 45 43 44 44 43 43 43 43 43 44 45 46 47 46 46 47 47 46 46 45 42 40 39 40 39 37 36 34 31 29 26 24 22 23 28 32 34 34 34 33 34 35 35 35 36 36 35 33 30 29 29 28 26 25 24 24 25 24 22 20 22 25 25 24 24 25 25 22 18 15 14 13 12 11 10
41 44 48 50 49 49 49 47 45 45 43 42 43 44 43 44 44 43 43 43 44 44 45 45 45 45 45 44 43 43 42 40 39 38 37 35 34 32 30 28 25 23 21 23 27 30 31 32 32 31 32 33 34 35 36 36 35 34 32 31 31 30 27 25 24 24 25 23 20 20 24 26 24 23 23 22 21 19 16 13 13 12 10 9 9
38 38 39 42 44 44 43 42 41 39 39 39 42 43 44 45 45 44 43 43 42 42 42 44 44 44 43 43 42 41 39 37 35 34 32 31 30 29 27 26 24 23 23 25 28 29 30 31 31 31 31 32 32 33 35 35 34 33 30 29 30 30 26 22 22 23 23 21 19 20 24 25 22 20 19 18 16 14 11 11 10 9 10 10 9
35 35 35 38 42 45 46 46 44 40 37 35 36 39 42 44 45 45 45 44 42 41 41 43 43 42 41 40 39 38 35 32 30 29 28 27 27 26 26 25 25 25 25 27 27 27 28 28 29 30 30 31 32 32 34 34 33 31 28 28 30 28 22 20 23 24 22 20 19 20 21 23 22 19 16 14 13 12 11 11 11 11 12 11 9
30 34 35 35 37 41 45 46 45 44 42 40 37 37 39 43 46 47 46 45 44 42 41 42 41 40 39 38 36 34 33 30 28 26 26 26 26 26 27 27 27 27 28 28 27 26 26 25 25 25 25 27 29 30 31 31 31 30 30 29 28 25 20 20 25 26 22 19 17 15 16 16 16 15 14 14 14 14 15 15 13 12 13 11 8
26 30 34 36 34 34 37 40 43 43 42 42 42 40 39 42 47 49 48 47 45 42 40 40 40 39 38 36 34 33 32 29 27 27 27 26 26 26 27 27 28 29 29 28 26 26 25 24 22 20 20 22 24 26 28 28 28 31 31 27 24 24 23 23 25 25 21 18 14 12 13 12 12 15 16 15 15 16 17 16 13 12 12 10 7
24 27 32 36 37 35 35 38 42 43 41 41 44 42 39 40 46 48 47 46 45 43 41 41 41 39 38 36 34 33 31 29 27 26 26 25 25 25 26 27 28 29 28 27 26 26 24 22 21 20 21 22 22 24 26 28 30 33 31 26 24 24 22 21 23 22 19 16 14 14 14 12 12 15 17 17 15 14 13 14 14 12 11 10 8
24 25 26 31 35 38 38 38 40 41 42 42 43 41 38 40 44 45 45 46 47 45 43 41 40 39 38 36 34 32 30 28 27 26 25 25 25 26 26 26 26 26 25 24 25 24 22 21 21 22 22 22 21 22 25 28 30 32 28 24 22 21 19 18 18 16 15 15 15 15 15 14 15 17 18 16 15 13 12 14 15 14 12 12 10
21 21 21 24 30 34 37 37 38 40 42 42 40 38 37 40 42 42 43 45 46 44 42 42 40 39 37 35 33 31 29 28 27 26 26 27 27 27 27 26 25 24 22 21 22 23 22 21 22 23 23 23 23 23 24 25 27 26 24 21 20 18 17 15 14 13 16 18 17 17 18 17 16 17 17 15 14 14 15 16 15 14 14 14 11
14 15 17 22 26 29 31 35 38 39 40 39 37 35 36 39 41 41 42 43 43 42 42 41 40 37 34 32 31 30 29 28 27 27 28 28 28 28 27 26 25 24 23 22 23 24 23 23 23 24 23 23 23 22 22 23 23 21 19 19 19 17 14 13 13 15 19 21 19 19 19 16 14 15 16 14 13 15 15 14 13 12 13 14 12
9 11 13 17 22 25 27 31 35 36 36 37 36 34 36 39 41 43 44 43 42 41 39 38 36 33 31 30 29 30 30 29 29 29 29 29 30 29 27 25 24 24 23 23 24 25 25 25 24 24 23 22 21 20 20 21 20 15 12 15 18 17 15 15 17 19 21 21 18 17 17 15 14 15 15 14 14 13 13 12 12 12 12 12 11
6 9 11 14 17 22 26 29 31 32 33 35 35 35 37 39 41 42 44 43 41 38 36 34 31 30 28 27 28 28 28 28 29 29 29 29 28 27 26 25 24 23 23 23 23 25 26 26 25 25 24 22 21 20 18 18 17 14 12 15 18 18 19 21 22 22 21 21 19 18 18 18 18 17 16 16 15 14 13 14 14 14 14 14 14
12 13 13 15 19 23 27 30 31 30 31 33 35 35 36 37 38 39 40 39 36 35 33 30 27 24 23 21 22 22 22 23 24 26 26 25 24 23 23 23 23 23 22 22 22 23 24 24 24 24 23 22 20 18 16 16 16 16 16 18 20 21 21 22 23 23 23 22 21 20 19 19 19 18 17 17 17 16 16 16 16 17 18 17 17
20 21 22 23 25 28 31 33 34 33 33 34 35 35 33 33 35 36 36 33 31 29 28 26 23 21 20 18 18 19 20 21 22 22 22 21 21 20 20 21 21 21 21 21 21 20 20 21 21 21 20 18 17 16 15 15 16 16 16 17 19 21 21 22 24 24 23 21 20 19 18 18 19 19 18 17 17 17 17 17 17 18 19 19 19
22 23 25 27 28 29 31 33 35 36 36 37 37 36 34 33 34 33 32 31 30 29 28 27 25 24 23 22 21 22 23 24 23 22 22 21 20 20 20 20 20 20 20 20 20 19 18 18 18 17 17 17 17 16 16 16 16 15 15 16 19 20 20 21 23 23 21 19 19 18 17 18 19 19 18 17 17 17 18 18 19 20 20 21 21
22 23 24 25 26 27 28 29 31 31 32 34 36 34 31 30 31 32 32 32 31 31 31 30 29 28 28 27 26 26 26 25 24 23 23 23 22 22 22 22 21 21 21 21 20 19 18 17 17 17 17 18 18 18 17 17 17 16 16 17 18 18 18 19 21 21 20 20 20 19 18 18 18 18 18 18 19 19 20 21 22 22 21 21 22
21 24 25 24 24 24 25 25 26 27 28 29 31 31 30 29 29 31 32 33 32 32 31 31 30 29 29 28 27 27 26 25 24 23 23 22 23 23 23 23 22 22 23 22 21 20 19 20 19 19 19 19 19 19 18 17 17 17 17 17 17 17 17 18 19 19 19 19 19 19 18 18 18 19 19 20 20 21 21 21 21 21 20 20 18
20 22 24 24 25 25 25 25 26 27 28 28 28 30 30 31 31 31 31 31 31 31 31 30 29 28 27 27 26 25 25 24 24 24 24 23 23 23 23 23 22 22 22 22 21 20 20 20 19 18 18 18 18 17 17 16 15 15 15 15 15 14 14 15 16 17 16 16 17 17 17 16 16 17 17 17 18 19 19 19 18 18 17 15 13
19 19 21 23 25 26 26 26 27 28 29 28 28 28 28 28 28 29 28 28 27 27 27 27 25 24 23 22 21 20 20 20 20 21 22 23 23 23 23 23 23 23 22 22 21 20 20 19 18 17 17 16 16 15 15 14 13 13 13 12 12 12 11 12 13 14 14 13 13 14 15 15 15 15 15 15 16 16 15 14 13 13 12 12 11
19 18 19 21 23 25 26 26 27 27 27 26 26 26 25 24 23 23 23 23 24 23 22 22 21 20 18 17 17 16 16 17 17 18 19 20 21 21 21 21 21 21 21 21 21 20 19 18 18 17 16 15 15 14 14 13 13 12 11 11 10 10 9 8 8 9 10 9 9 10 10 11 12 12 12 12 12 12 10 9 9 10 10 10 11
19 19 19 20 20 21 22 23 25 25 25 24 25 25 25 24 23 21 20 21 22 21 21 20 19 19 19 18 17 17 17 18 18 19 20 21 20 19 18 18 18 19 19 19 19 18 17 17 17 16 16 15 15 14 13 13 12 10 9 7 6 5 4 4 4 4 5 5 6 7 8 9 9 10 10 11 11 10 9 9 9 9 9 10 11
Wind_Direction
211 212 212 214 215 217 219 219 220 221 221 222 222 223 224 225 226 227 228 230 228 222 220 223 225 222 220 222 225 226 225 224 224 223 224 226 223 221 221 221 221 221 224 227 225 226 226 222 222 224 226 228 219 209 216 230 238 239 246 266 273 270 269 269 269 260 240 240 253 262 273 282 288 295 303 309 314 316 316 318 319 318 319 321 324
211 212 213 214 215 217 218 220 220 221 222 223 224 224 225 225 226 227 229 230 231 226 220 219 224 226 225 225 228 229 228 227 228 229 229 227 224 223 223 224 225 222 223 228 228 231 234 230 228 228 228 231 231 223 222 230 241 244 247 266 281 286 285 282 282 279 267 261 273 283 292 298 301 307 312 313 316 317 318 320 320 319 320 323 328
212 212 214 216 217 217 218 219 220 221 222 223 224 225 225 226 226 227 228 230 231 231 226 221 222 226 228 230 231 232 232 229 228 231 233 230 226 224 224 226 229 225 223 226 229 233 237 238 239 237 234 233 233 234 232 231 235 238 246 261 270 277 283 283 285 290 290 290 293 298 305 309 308 312 315 315 316 316 318 325 329 329 331 332 333
213 213 215 217 219 218 218 219 219 220 221 222 224 225 226 226 226 227 228 229 230 231 230 226 224 225 228 231 233 233 234 232 231 232 234 234 230 226 224 226 231 233 228 225 227 232 238 241 243 243 242 239 237 239 239 236 234 234 238 249 259 266 273 278 283 291 295 296 298 303 309 311 311 315 319 320 321 322 325 332 337 338 338 335 332
213 215 216 217 218 218 219 219 218 219 220 222 224 225 226 226 227 227 228 229 230 230 230 229 227 225 227 231 234 234 234 234 234 234 235 236 236 233 228 226 230 234 235 232 228 230 236 243 245 244 244 244 244 244 245 244 241 239 238 239 247 256 262 269 275 278 283 288 296 303 308 310 311 316 322 323 325 328 331 334 337 337 334 332 332
211 214 216 216 217 217 218 218 218 218 219 221 223 224 225 225 226 227 227 228 229 229 230 230 228 227 227 230 233 235 235 234 234 235 236 237 239 239 236 233 231 233 236 238 237 233 234 240 244 245 246 246 248 249 250 252 250 249 247 242 242 248 253 260 267 271 277 284 293 299 304 309 311 318 326 326 324 327 331 334 335 331 328 329 331
209 212 214 215 216 217 218 218 218 218 218 220 221 222 222 224 226 227 227 227 228 228 228 229 229 229 229 230 232 234 235 234 233 233 235 237 240 241 240 239 237 237 238 240 241 239 237 239 243 245 247 248 249 251 253 254 255 255 254 251 250 250 253 259 267 274 281 285 290 296 303 308 310 317 326 326 322 325 329 330 329 325 323 326 326
210 212 214 216 217 218 219 219 218 218 218 219 220 220 221 222 224 227 227 227 227 227 227 228 229 230 231 231 232 233 233 233 233 232 233 235 238 240 242 242 241 242 243 242 243 242 241 240 241 244 248 250 252 254 256 256 256 257 256 255 256 256 257 261 266 272 277 282 289 294 300 305 308 315 321 321 320 324 326 324 320 317 318 320 319
211 212 214 217 220 220 219 219 219 218 218 219 219 219 220 221 222 224 227 227 227 227 226 227 228 229 231 232 232 232 232 232 232 233 232 233 236 239 240 242 243 244 245 246 245 244 243 242 240 240 243 247 251 255 258 258 257 258 258 257 258 259 260 261 263 267 272 279 286 291 295 300 306 312 317 319 320 321 321 317 311 310 312 315 314
213 213 215 218 221 220 218 218 218 218 218 218 219 220 220 221 220 222 226 228 228 227 224 224 225 227 229 231 232 232 232 233 233 234 234 234 236 238 239 240 242 244 246 248 247 246 246 245 245 243 240 241 245 251 256 256 256 257 257 257 258 260 262 263 264 267 272 277 284 290 292 296 304 311 314 318 319 315 311 307 305 307 310 312 313
216 215 215 218 220 220 218 218 218 219 219 219 220 221 220 220 220 221 223 226 227 226 224 222 222 224 227 229 231 232 233 234 235 235 235 236 236 238 240 241 242 243 245 248 250 252 251 250 251 250 244 239 240 247 255 257 256 256 257 256 257 258 262 266 267 270 273 277 283 287 288 293 303 309 309 313 315 310 304 301 303 308 309 309 312
221 220 219 218 220 221 220 220 220 220 220 220 221 221 220 219 219 219 221 223 225 225 224 221 219 222 225 228 231 233 234 235 237 236 236 236 236 237 239 241 242 243 245 248 251 254 255 255 256 255 250 242 238 244 252 255 257 259 260 259 258 261 263 266 269 271 272 275 280 283 286 292 301 305 306 309 308 304 301 299 302 305 304 305 311
222 223 222 222 223 223 222 221 222 222 222 222 222 222 220 218 219 219 219 221 223 225 225 222 218 219 223 226 229 232 234 235 237 237 236 236 236 236 237 239 241 243 245 247 250 252 254 256 256 256 254 247 241 240 243 247 251 256 259 261 261 263 264 265 267 269 270 272 275 280 286 292 296 301 306 305 300 297 296 296 299 302 303 307 310
218 221 222 223 225 226 225 224 224 224 224 223 222 222 220 218 219 218 218 219 221 223 224 223 219 217 221 226 228 231 234 236 237 238 237 237 236 236 236 237 239 241 244 246 249 251 253 254 256 256 255 252 247 244 243 244 247 250 255 258 260 262 263 264 267 270 271 272 274 279 286 289 291 299 304 299 293 293 293 295 300 304 306 309 309
222 224 225 228 229 227 225 226 226 225 225 223 223 222 220 218 217 217 217 217 220 222 223 223 221 217 218 223 228 231 234 237 238 239 239 237 235 234 236 237 237 239 242 245 247 249 251 253 255 256 255 252 249 247 247 247 249 251 255 259 262 265 266 266 268 271 274 275 275 279 284 286 290 296 298 294 290 291 293 296 301 305 306 306 307
225 225 224 226 227 224 223 226 227 226 224 223 223 222 221 219 217 216 215 216 218 221 223 223 223 220 217 220 225 230 233 236 238 239 241 239 236 233 235 237 238 239 240 241 243 246 248 250 252 253 254 253 250 247 245 245 247 250 255 260 264 267 268 269 272 274 276 278 278 280 285 289 291 292 292 291 289 290 292 294 299 303 303 304 308
226 226 224 223 223 222 222 224 225 226 224 223 223 223 222 220 218 216 214 215 216 219 221 223 223 223 220 218 221 226 230 234 237 238 240 241 237 234 233 235 236 237 239 240 241 243 245 246 249 251 254 256 255 251 245 243 244 247 252 257 262 265 268 271 273 275 278 280 282 285 287 288 285 284 287 288 288 289 290 292 297 300 301 305 311
227 229 227 226 224 222 221 222 224 226 225 224 224 224 223 222 219 217 215 215 216 218 220 222 223 224 224 221 221 223 226 231 234 236 238 238 238 237 236 235 235 235 236 238 239 241 242 244 246 250 254 258 259 258 254 249 246 248 251 255 260 264 268 272 276 278 280 283 284 285 285 284 281 280 284 286 287 288 289 293 298 300 303 309 313
232 233 231 228 226 224 222 221 223 225 227 227 225 224 224 223 221 219 216 215 216 217 219 220 222 223 225 226 225 224 224 226 230 232 235 235 236 237 237 236 236 237 239 239 238 238 240 243 245 248 253 257 259 260 260 256 254 253 253 255 259 264 270 275 279 281 283 284 284 284 284 282 279 278 281 284 286 288 291 295 299 303 307 312 312
237 236 234 231 228 226 224 224 223 223 226 228 226 224 224 223 221 220 218 216 216 217 219 220 221 222 225 227 228 227 226 225 226 228 230 231 233 234 235 235 238 242 245 246 244 241 241 243 246 249 252 255 257 260 261 260 260 261 259 257 260 266 273 277 279 281 282 282 282 282 283 281 277 275 277 281 285 289 292 294 298 304 309 310 311
240 236 234 233 230 227 226 226 225 224 225 226 225 224 223 223 222 221 219 217 216 216 218 219 220 222 224 226 227 229 229 228 227 227 227 229 231 232 233 236 241 246 249 251 252 251 251 251 251 250 251 253 255 258 260 261 263 263 263 263 266 270 274 275 277 278 278 279 281 281 281 281 279 276 277 281 285 288 291 294 298 303 306 306 311
241 237 234 234 232 228 226 227 226 224 223 223 222 222 222 222 222 221 220 218 216 216 217 219 220 221 223 225 226 228 230 231 231 230 229 230 231 232 234 239 244 247 250 252 254 257 258 259 258 255 252 252 252 254 257 259 261 262 263 266 268 270 271 272 273 274 274 277 280 278 276 277 278 276 275 278 282 284 288 293 298 300 301 302 308
240 237 234 234 232 228 227 227 225 222 222 221 220 220 220 221 221 221 220 218 217 216 216 218 219 220 221 223 226 227 229 232 233 234 233 232 233 234 237 242 245 247 249 252 255 258 259 260 260 259 256 253 251 252 253 254 256 258 261 264 265 265 266 267 267 268 270 272 275 275 274 273 275 277 279 281 282 283 288 294 295 294 293 296 301
238 235 235 234 232 229 227 226 223 221 221 220 219 218 218 219 220 220 219 218 217 216 216 216 217 218 219 221 224 226 228 231 234 236 236 235 235 236 238 241 244 246 248 251 254 256 256 257 258 258 258 257 256 254 253 253 254 256 258 260 260 259 260 260 262 263 265 267 271 275 276 274 273 277 282 286 287 288 291 294 293 291 293 296 299
238 234 234 234 232 230 228 225 222 221 220 219 217 217 217 218 219 219 219 218 217 217 216 216 216 218 219 220 223 226 228 229 232 235 236 236 237 237 238 240 241 243 246 248 250 253 255 256 256 255 255 256 256 256 255 253 253 255 256 255 253 253 253 255 257 259 262 266 271 276 280 279 276 277 279 281 282 282 282 283 283 284 287 288 292
241 236 234 232 231 229 225 222 219 218 218 218 218 217 217 217 218 219 218 218 218 217 216 216 216 217 218 220 222 225 227 227 230 234 235 236 238 239 239 240 241 242 244 246 248 251 252 253 254 253 253 253 254 254 255 254 254 254 253 250 248 248 250 252 255 260 266 272 277 281 284 283 279 275 273 271 268 266 266 268 270 270 270 276 287
241 236 231 229 227 224 221 218 217 215 215 216 216 217 217 218 218 218 218 218 218 217 216 216 216 217 218 218 220 222 225 226 229 232 233 234 236 238 239 239 240 239 240 243 245 247 249 250 251 251 252 252 251 251 251 252 251 250 250 250 250 251 253 256 260 266 272 277 280 282 281 275 269 268 267 266 264 263 261 261 263 264 267 278 290
238 234 229 226 224 221 218 216 215 214 213 214 215 215 216 217 219 220 220 219 218 217 217 217 217 218 217 217 217 219 222 225 229 232 234 235 236 237 237 237 238 237 238 239 241 243 246 247 248 249 249 248 246 245 246 247 247 248 249 251 252 254 255 258 262 267 273 278 277 272 268 264 261 260 262 263 263 263 261 258 258 263 273 282 285
239 235 230 224 221 218 216 214 214 213 212 211 213 215 217 218 221 224 224 223 222 221 219 219 219 219 219 218 218 218 220 225 230 236 238 239 239 240 240 240 241 242 243 242 241 241 242 243 245 247 248 247 245 244 244 245 246 247 247 248 250 252 254 257 262 267 272 274 267 258 254 253 253 255 259 260 259 258 259 259 259 264 270 271 266
241 236 228 221 217 215 213 211 211 211 210 210 211 215 218 220 223 225 225 225 226 225 224 223 222 221 221 222 223 224 227 232 234 236 239 240 240 242 244 245 246 248 250 247 241 240 241 243 245 247 248 249 248 247 246 247 247 248 248 248 248 249 251 255 260 263 264 260 254 250 246 243 245 251 258 259 257 258 261 261 259 258 254 250 247
235 228 221 216 214 213 211 209 209 208 208 209 211 215 218 221 223 225 226 226 226 227 227 227 226 225 225 226 227 229 233 235 235 235 237 238 239 241 243 245 246 247 247 244 239 237 238 240 243 245 247 249 250 250 250 250 250 250 249 248 248 248 249 253 258 259 257 251 245 242 242 243 247 254 258 255 252 254 257 250 241 238 239 239 237
224 219 216 213 211 210 209 207 207 206 206 209 213 216 219 221 221 223 225 225 225 226 226 226 226 227 227 229 230 230 231 232 233 235 237 238 240 241 242 242 242 240 236 236 237 237 236 238 241 244 246 249 251 251 251 251 252 252 249 248 248 246 246 250 255 251 245 241 237 240 245 248 251 256 258 255 252 250 245 233 225 225 229 231 232
218 213 210 208 206 205 204 203 202 201 202 208 214 218 220 221 221 221 221 221 222 223 224 224 224 225 226 228 230 232 234 234 235 235 235 236 237 237 236 236 236 231 228 228 230 231 233 236 241 244 247 250 252 253 253 253 253 253 252 251 247 241 238 242 243 237 233 234 235 238 245 251 254 254 251 248 244 239 227 215 216 225 228 228 238
221 214 210 207 206 207 208 207 206 205 206 211 218 222 223 223 223 222 219 218 218 219 220 220 221 222 224 227 228 231 233 234 235 235 233 232 231 229 228 228 228 226 225 226 227 229 231 234 239 243 247 251 253 255 255 255 255 254 254 249 242 237 235 235 233 230 231 234 234 233 238 246 251 248 237 220 211 213 214 212 219 230 234 237 253
227 219 213 209 208 209 210 211 212 212 212 215 222 227 225 223 223 223 221 218 216 214 215 216 216 218 221 224 226 227 227 228 229 229 228 226 224 222 221 223 224 224 224 223 225 228 231 235 238 243 247 252 254 255 257 258 257 254 247 239 236 237 240 237 234 232 233 239 244 239 230 228 226 217 205 193 190 200 209 213 219 228 232 240 255
237 225 215 210 210 210 210 212 214 214 213 216 221 223 222 222 223 223 221 218 216 214 213 212 212 213 215 218 220 221 221 221 221 220 220 220 221 220 221 223 224 225 224 224 226 228 230 234 239 244 249 252 252 252 253 254 252 247 239 234 238 248 247 236 230 231 233 239 239 220 201 196 191 188 189 191 194 203 210 212 214 221 228 236 242
248 238 224 217 218 218 215 214 215 215 214 216 219 219 217 219 222 221 218 216 215 214 212 211 210 210 211 213 214 216 216 216 215 215 216 219 221 224 227 229 229 228 227 228 230 231 232 235 241 247 251 251 250 249 248 247 247 246 243 238 241 246 238 221 217 222 227 225 211 193 189 191 187 186 193 197 200 207 212 208 205 213 226 233 243
247 244 232 222 222 222 219 217 216 216 215 216 217 216 214 215 218 220 217 215 215 214 212 211 211 211 211 211 211 212 213 214 214 216 218 219 220 223 226 227 229 230 229 228 228 229 231 236 243 248 250 250 248 247 246 247 248 246 241 233 227 226 220 211 210 212 209 201 191 186 189 191 189 193 202 204 200 200 201 198 201 213 225 230 240
247 247 240 228 224 225 223 221 220 218 216 215 215 214 211 208 210 214 214 213 212 211 210 209 210 210 211 210 210 210 212 215 216 216 217 217 217 220 221 223 224 225 224 223 223 224 227 236 244 248 248 246 245 243 241 240 237 228 220 216 214 209 206 208 206 194 185 183 181 183 191 198 198 198 200 196 190 193 200 205 211 221 227 229 233
248 245 239 231 227 226 224 222 220 218 215 213 211 211 209 205 205 209 211 209 207 205 205 205 206 207 207 208 209 210 212 213 213 213 213 214 214 216 217 220 222 223 222 222 221 222 226 234 240 240 237 235 234 230 225 225 223 216 210 212 212 206 199 196 187 178 180 183 183 189 198 205 201 194 193 194 193 194 201 211 218 220 223 227 235
228 212 206 208 210 207 204 205 207 208 208 206 203 202 202 202 201 204 205 203 200 198 198 199 200 202 203 203 205 207 208 208 207 207 209 211 213 214 215 216 219 221 221 219 217 217 219 222 225 227 225 222 220 216 213 215 220 218 206 202 205 203 194 180 172 175 183 188 189 193 198 198 195 195 198 202 201 198 200 204 207 210 218 229 242
176 173 167 169 175 174 175 182 191 196 197 196 193 191 193 196 195 195 196 195 192 190 191 191 192 195 197 199 201 203 203 202 202 203 204 206 209 211 211 212 213 215 216 215 214 213 211 211 213 217 220 220 218 214 209 207 208 203 187 181 184 185 181 176 175 180 185 185 184 185 185 186 189 193 196 196 199 200 201 203 208 218 231 240 247
118 124 130 137 140 142 152 168 180 182 180 181 180 180 184 185 181 179 181 181 179 180 180 180 180 184 187 192 200 204 202 198 197 197 198 198 198 198 197 197 199 201 202 203 204 204 204 205 206 207 210 211 209 203 196 188 181 176 172 170 171 174 178 181 181 180 179 180 181 184 185 187 190 192 193 196 202 209 214 220 228 236 243 247 251
106 111 118 125 127 127 135 149 158 157 155 159 163 163 163 161 160 161 163 161 159 160 161 161 163 169 171 176 187 194 191 188 187 186 185 185 184 183 182 183 185 188 190 192 193 195 198 201 201 198 195 191 184 179 176 174 172 171 172 173 174 175 177 179 178 177 177 180 183 186 188 191 193 196 199 205 213 222 230 239 245 248 251 253 255
98 103 109 115 117 116 119 126 132 133 133 136 142 143 138 133 134 139 144 144 142 143 143 144 147 152 154 157 164 168 169 171 173 174 175 176 176 176 176 178 181 184 184 183 183 183 184 185 184 182 177 172 169 167 166 167 168 170 172 174 175 174 173 174 178 182 184 186 188 191 196 200 202 205 210 218 226 234 240 249 254 257 258 258 259
90 92 95 100 105 108 110 113 120 124 125 125 128 131 130 127 126 130 134 137 138 139 140 141 143 146 147 149 152 154 155 158 161 162 163 165 166 166 168 169 170 171 168 163 161 162 162 163 164 164 163 161 161 163 163 162 161 162 163 167 173 177 177 180 185 189 192 195 198 202 207 213 219 224 228 234 243 249 252 256 258 259 260 262 265
85 88 91 93 97 103 107 111 117 123 127 127 128 129 130 131 131 130 132 134 137 140 142 143 144 146 149 150 152 152 153 154 154 154 155 156 156 155 156 157 156 155 153 152 152 154 155 156 156 156 157 156 157 159 161 160 161 162 163 166 171 176 180 184 189 194 199 203 208 213 219 227 236 241 242 244 248 253 256 257 260 265 269 273 274
85 89 94 98 100 102 106 109 114 118 123 126 128 128 129 131 132 131 131 133 135 137 140 141 142 144 146 146 147 148 149 150 150 149 150 150 150 150 150 150 150 150 150 150 151 152 153 154 155 155 156 158 158 160 162 163 167 171 175 178 181 184 187 192 199 204 210 216 223 229 236 242 244 245 246 247 250 254 258 262 268 273 275 275 275
93 92 96 102 105 107 110 113 115 117 119 120 121 121 122 124 125 126 128 130 131 131 132 132 132 132 133 133 133 135 138 140 143 144 144 145 146 146 147 148 149 150 151 150 149 150 152 153 155 158 161 164 165 167 169 171 173 177 181 183 186 190 193 197 204 212 220 229 236 241 246 248 247 247 249 252 254 257 262 267 271 272 269 268 270
103 100 98 99 102 107 112 115 117 119 121 120 119 118 118 118 119 120 124 128 130 130 129 128 126 126 127 128 131 135 138 140 143 147 149 149 147 148 149 149 148 148 148 147 146 147 149 151 153 156 159 161 163 165 166 166 168 169 171 174 179 185 191 196 204 216 227 238 246 250 253 255 255 254 257 259 262 265 270 272 271 268 265 265 267
105 105 103 101 102 106 111 113 115 117 119 120 120 121 121 120 121 123 128 132 134 135 136 134 133 131 131 132 135 138 140 141 144 148 151 151 149 148 147 144 141 140 142 142 141 141 142 143 146 148 150 151 152 153 154 155 157 157 157 160 168 176 185 195 211 226 238 245 248 250 252 256 259 262 265 269 274 278 278 277 274 268 262 260 262
Height
1524 1526 1529 1532 1535 1537 1540 1543 1546 1549 1552 1554 1556 1559 1561 1563 1565 1567 1569 1570 1572 1574 1575 1577 1578 1580 1581 1582 1583 1584 1585 1587 1588 1589 1590 1591 1592 1593 1593 1594 1595 1595 1596 1596 1597 1597 1598 1598 1599 1600 1601 1601 1602 1603 1603 1603 1603 1603 1604 1604 1604 1604 1604 1604 1603 1603 1603 1603 1602 1602 1602 1601 1600 1600 1599 1597 1597 1596 1594 1593 1593 1592 1592 1591 1591
1519 1522 1525 1528 1531 1533 1536 1539 1542 1545 1548 1550 1553 1555 1558 1560 1562 1564 1566 1567 1569 1571 1573 1574 1576 1577 1578 1580 1581 1582 1583 1584 1586 1587 1588 1589 1590 1591 1591 1592 1593 1594 1594 1595 1595 1596 1596 1597 1597 1598 1599 1600 1601 1601 1602 1602 1602 1602 1602 1603 1603 1603 1603 1602 1602 1601 1601 1601 1600 1600 1600 1599 1598 1598 1597 1596 1595 1594 1593 1592 1592 1591 1590 1590 1589
1516 1519 1521 1524 1527 1530 1533 1535 1538 1541 1544 1546 1549 1551 1554 1556 1559 1561 1562 1564 1566 1568 1570 1572 1573 1574 1576 1577 1578 1580 1581 1582 1583 1584 1585 1587 1588 1589 1589 1590 1591 1592 1593 1593 1593 1594 1594 1595 1596 1596 1597 1598 1599 1600 1601 1601 1601 1601 1601 1601 1601 1601 1601 1601 1601 1600 1599 1599 1598 1597 1597 1597 1596 1596 1595 1594 1593 1593 1591 1590 1590 1589 1589 1588 1586
1514 1516 1517 1520 1523 1527 1529 1531 1534 1537 1539 1542 1544 1547 1550 1553 1555 1557 1559 1561 1563 1565 1567 1569 1570 1571 1573 1574 1575 1577 1578 1579 1580 1581 1583 1584 1585 1586 1587 1588 1589 1590 1591 1591 1592 1592 1593 1593 1594 1595 1595 1596 1597 1598 1599 1599 1600 1600 1599 1599 1599 1599 1600 1599 1599 1598 1598 1596 1596 1595 1595 1595 1594 1594 1594 1592 1591 1590 1589 1588 1587 1587 1586 1585 1584
1511 1513 1514 1517 1519 1523 1525 1527 1530 1532 1534 1537 1540 1543 1546 1549 1552 1554 1556 1558 1559 1561 1563 1565 1567 1568 1569 1570 1572 1574 1575 1576 1577 1578 1580 1581 1582 1584 1585 1586 1587 1587 1588 1589 1590 1591 1591 1591 1592 1593 1594 1594 1595 1596 1597 1597 1598 1598 1598 1598 1598 1598 1598 1597 1597 1597 1597 1595 1594 1594 1593 1593 1592 1592 1591 1590 1588 1587 1586 1586 1585 1584 1583 1582 1581
1507 1510 1512 1513 1515 1518 1520 1523 1525 1528 1531 1533 1536 1539 1542 1545 1548 1550 1552 1554 1556 1558 1559 1561 1563 1564 1566 1567 1568 1570 1572 1573 1574 1575 1577 1578 1580 1581 1582 1584 1585 1585 1586 1587 1588 1589 1589 1590 1590 1591 1592 1592 1593 1594 1595 1595 1596 1596 1596 1597 1597 1596 1596 1596 1596 1596 1596 1595 1593 1592 1591 1591 1590 1589 1589 1588 1585 1583 1583 1583 1583 1582 1581 1580 1579
1504 1506 1508 1510 1511 1513 1516 1518 1521 1524 1527 1530 1533 1536 1538 1541 1543 1546 1548 1550 1552 1554 1556 1557 1559 1561 1563 1564 1566 1567 1568 1570 1571 1573 1574 1576 1577 1578 1579 1581 1582 1583 1584 1585 1585 1586 1587 1588 1589 1589 1590 1590 1591 1592 1592 1593 1594 1594 1594 1594 1595 1595 1594 1594 1594 1594 1593 1593 1592 1591 1589 1589 1588 1586 1586 1585 1584 1582 1581 1580 1580 1579 1578 1578 1577
1501 1503 1505 1507 1508 1510 1512 1515 1518 1520 1523 1526 1529 1532 1534 1537 1539 1542 1545 1547 1548 1550 1552 1554 1556 1558 1560 1561 1563 1564 1565 1567 1568 1570 1572 1573 1574 1575 1576 1578 1579 1580 1581 1582 1583 1584 1585 1586 1586 1587 1588 1588 1589 1589 1590 1591 1591 1591 1592 1592 1592 1592 1592 1592 1592 1592 1591 1591 1590 1589 1587 1586 1585 1584 1583 1583 1581 1581 1580 1579 1577 1577 1577 1576 1576
1499 1500 1502 1503 1505 1507 1510 1513 1515 1518 1521 1523 1526 1528 1531 1533 1536 1538 1540 1542 1544 1547 1548 1550 1552 1554 1556 1557 1559 1561 1562 1564 1565 1566 1568 1570 1571 1572 1573 1574 1576 1577 1578 1579 1580 1581 1582 1583 1584 1584 1585 1586 1587 1587 1588 1588 1589 1589 1589 1590 1590 1590 1590 1590 1590 1590 1590 1589 1588 1587 1585 1584 1583 1583 1581 1580 1579 1579 1578 1577 1576 1576 1575 1574 1574
1497 1498 1499 1500 1503 1505 1508 1510 1513 1516 1518 1519 1522 1525 1527 1530 1533 1535 1536 1538 1541 1543 1545 1547 1548 1550 1552 1554 1556 1557 1559 1560 1562 1563 1565 1566 1568 1569 1570 1572 1573 1574 1575 1577 1578 1579 1579 1580 1581 1582 1583 1583 1584 1585 1585 1586 1586 1586 1587 1587 1587 1587 1587 1588 1588 1588 1588 1587 1586 1585 1583 1582 1582 1581 1579 1577 1577 1577 1576 1575 1575 1574 1573 1572 1571
1495 1497 1498 1500 1502 1505 1506 1508 1511 1513 1515 1516 1518 1521 1524 1527 1529 1531 1533 1535 1537 1539 1542 1543 1545 1546 1548 1550 1551 1553 1555 1556 1558 1560 1562 1564 1565 1567 1568 1569 1570 1571 1573 1574 1575 1576 1577 1577 1578 1579 1580 1580 1581 1582 1583 1583 1583 1583 1584 1584 1584 1585 1585 1585 1585 1586 1586 1585 1583 1582 1581 1579 1579 1579 1577 1575 1575 1575 1574 1573 1573 1572 1571 1569 1568
1494 1497 1499 1501 1502 1503 1504 1506 1508 1511 1512 1514 1515 1518 1520 1523 1525 1527 1529 1531 1534 1536 1538 1540 1541 1543 1545 1546 1548 1549 1551 1553 1555 1557 1559 1560 1562 1564 1565 1566 1568 1569 1570 1571 1572 1573 1574 1575 1575 1576 1577 1577 1578 1579 1580 1580 1581 1581 1581 1581 1582 1582 1582 1582 1582 1583 1583 1582 1581 1580 1578 1578 1577 1576 1575 1574 1573 1573 1572 1571 1571 1570 1569 1567 1565
1495 1497 1499 1501 1501 1501 1503 1504 1506 1508 1510 1511 1513 1515 1518 1519 1521 1524 1526 1528 1530 1532 1534 1536 1538 1540 1541 1542 1544 1545 1547 1549 1551 1553 1555 1557 1559 1561 1562 1563 1565 1566 1567 1568 1569 1570 1571 1572 1572 1573 1574 1574 1575 1576 1577 1577 1578 1578 1578 1578 1579 1579 1579 1579 1579 1579 1580 1580 1579 1577 1576 1576 1575 1574 1573 1573 1571 1570 1570 1569 1569 1568 1566 1565 1564
1493 1495 1497 1499 1500 1501 1502 1502 1503 1505 1507 1510 1512 1513 1515 1516 1517 1520 1522 1525 1527 1528 1530 1533 1535 1537 1538 1539 1541 1542 1543 1546 1548 1550 1552 1554 1556 1557 1559 1560 1562 1563 1564 1565 1566 1567 1568 1569 1569 1570 1571 1571 1572 1573 1574 1574 1574 1575 1575 1575 1575 1576 1576 1576 1576 1576 1576 1576 1576 1575 1574 1575 1573 1572 1572 1571 1569 1568 1567 1567 1566 1565 1564 1563 1562
1487 1491 1494 1497 1498 1499 1498 1498 1499 1502 1504 1507 1509 1510 1512 1513 1515 1517 1519 1521 1523 1524 1527 1529 1531 1533 1535 1536 1538 1539 1540 1542 1545 1547 1548 1550 1552 1554 1555 1557 1559 1560 1561 1562 1563 1564 1565 1566 1566 1567 1567 1568 1569 1570 1570 1571 1571 1571 1571 1571 1572 1572 1572 1572 1572 1572 1573 1573 1573 1572 1572 1572 1571 1570 1569 1569 1567 1566 1565 1565 1564 1563 1562 1561 1560
1482 1484 1486 1488 1489 1491 1493 1494 1495 1497 1501 1503 1505 1507 1508 1510 1512 1514 1516 1518 1520 1521 1523 1525 1527 1530 1532 1533 1534 1536 1537 1539 1541 1543 1545 1547 1549 1551 1552 1554 1556 1557 1558 1559 1560 1561 1562 1562 1563 1563 1564 1565 1566 1567 1568 1568 1568 1568 1568 1568 1568 1568 1568 1569 1569 1569 1569 1569 1570 1569 1569 1569 1569 1568 1567 1566 1565 1564 1563 1563 1562 1561 1560 1559 1557
1477 1478 1479 1481 1482 1484 1486 1488 1490 1492 1495 1498 1500 1502 1504 1506 1509 1511 1513 1515 1516 1518 1519 1521 1523 1526 1528 1530 1531 1532 1534 1536 1537 1540 1541 1543 1546 1548 1549 1551 1552 1553 1554 1555 1556 1557 1558 1559 1559 1560 1560 1561 1562 1564 1565 1565 1565 1565 1565 1565 1565 1564 1564 1565 1565 1565 1565 1566 1566 1566 1566 1566 1566 1565 1564 1563 1563 1562 1562 1561 1560 1560 1558 1557 1556
1473 1474 1474 1477 1479 1480 1481 1483 1485 1487 1490 1492 1494 1497 1500 1503 1505 1508 1510 1511 1512 1514 1516 1518 1520 1522 1524 1526 1528 1529 1531 1532 1534 1536 1538 1540 1542 1544 1546 1547 1549 1550 1551 1552 1552 1553 1554 1555 1556 1556 1557 1557 1559 1560 1561 1562 1562 1562 1562 1562 1561 1560 1560 1561 1562 1561 1561 1562 1562 1563 1563 1563 1563 1562 1561 1561 1561 1560 1560 1560 1559 1558 1557 1556 1555
1468 1468 1468 1471 1474 1476 1477 1478 1480 1482 1484 1486 1490 1494 1497 1499 1502 1505 1507 1508 1510 1512 1513 1515 1517 1518 1520 1522 1524 1526 1528 1529 1531 1533 1535 1537 1539 1540 1542 1544 1545 1546 1547 1548 1549 1550 1551 1552 1552 1553 1553 1554 1555 1556 1558 1558 1559 1558 1559 1559 1558 1556 1557 1558 1558 1558 1557 1557 1558 1559 1560 1560 1561 1560 1559 1559 1559 1559 1559 1559 1559 1558 1557 1556 1555
1464 1466 1466 1468 1471 1472 1473 1475 1476 1478 1480 1482 1486 1490 1494 1497 1499 1502 1504 1506 1508 1509 1510 1511 1513 1514 1516 1518 1520 1522 1524 1526 1528 1530 1532 1533 1535 1537 1538 1539 1540 1542 1543 1544 1545 1546 1547 1548 1549 1549 1550 1551 1552 1553 1554 1554 1554 1555 1555 1555 1553 1553 1554 1555 1555 1554 1554 1554 1555 1556 1557 1557 1558 1558 1558 1558 1558 1558 1559 1559 1559 1559 1558 1557 1556
1463 1464 1465 1466 1467 1468 1469 1471 1472 1474 1476 1479 1483 1487 1490 1493 1495 1497 1500 1502 1504 1506 1507 1508 1509 1511 1513 1514 1516 1518 1520 1522 1524 1526 1528 1530 1531 1533 1534 1534 1536 1537 1538 1539 1541 1542 1543 1544 1545 1546 1547 1548 1549 1549 1550 1550 1551 1551 1551 1550 1550 1550 1551 1551 1552 1552 1551 1550 1551 1553 1553 1554 1556 1557 1558 1558 1558 1558 1558 1558 1559 1558 1557 1556 1555
1459 1460 1461 1462 1463 1464 1466 1467 1469 1471 1474 1476 1479 1482 1485 1489 1491 1494 1496 1498 1500 1502 1503 1504 1505 1507 1508 1510 1512 1514 1516 1518 1520 1522 1524 1526 1528 1529 1529 1530 1532 1534 1535 1535 1536 1537 1539 1540 1541 1543 1544 1544 1545 1546 1546 1547 1547 1547 1546 1546 1546 1547 1547 1548 1548 1549 1548 1548 1548 1550 1551 1552 1554 1555 1557 1558 1558 1558 1557 1558 1558 1557 1556 1555 1553
1455 1456 1457 1458 1459 1460 1462 1464 1466 1468 1470 1472 1475 1478 1481 1485 1487 1489 1492 1494 1496 1498 1499 1500 1501 1503 1504 1506 1508 1510 1512 1514 1515 1518 1520 1522 1523 1524 1525 1527 1528 1530 1531 1531 1532 1533 1535 1536 1537 1538 1539 1540 1541 1542 1543 1543 1543 1543 1543 1543 1543 1543 1544 1545 1545 1545 1545 1546 1546 1547 1549 1551 1552 1553 1555 1557 1557 1557 1556 1556 1556 1556 1555 1554 1553
1452 1452 1452 1453 1454 1456 1457 1460 1462 1464 1466 1468 1471 1473 1477 1480 1483 1485 1487 1489 1491 1493 1494 1496 1497 1498 1500 1501 1503 1505 1507 1509 1511 1513 1515 1517 1518 1520 1521 1523 1524 1526 1527 1527 1528 1529 1531 1532 1533 1534 1535 1536 1537 1538 1538 1539 1539 1539 1539 1540 1540 1540 1541 1541 1542 1543 1543 1544 1544 1545 1547 1550 1551 1552 1554 1554 1554 1554 1553 1553 1553 1553 1553 1552 1551
1446 1446 1447 1448 1449 1451 1453 1455 1458 1460 1462 1464 1466 1468 1472 1475 1478 1480 1482 1484 1486 1488 1489 1491 1493 1494 1495 1497 1498 1500 1503 1504 1506 1508 1510 1512 1514 1515 1517 1519 1520 1521 1522 1523 1524 1526 1527 1528 1529 1530 1531 1531 1532 1533 1533 1534 1535 1535 1536 1537 1537 1537 1537 1538 1539 1541 1541 1543 1544 1545 1547 1548 1550 1551 1552 1551 1550 1549 1548 1548 1547 1547 1548 1549 1550
1439 1439 1441 1442 1444 1446 1448 1450 1452 1455 1457 1459 1461 1463 1467 1470 1473 1475 1477 1479 1481 1483 1485 1487 1489 1490 1491 1492 1494 1496 1498 1500 1501 1503 1505 1507 1509 1511 1513 1514 1516 1517 1518 1520 1521 1522 1523 1524 1525 1526 1526 1527 1528 1528 1529 1530 1531 1532 1533 1533 1533 1533 1535 1536 1537 1539 1540 1542 1544 1545 1547 1547 1547 1547 1547 1548 1547 1545 1544 1543 1541 1541 1543 1546 1548
1432 1433 1434 1436 1439 1441 1442 1444 1447 1450 1452 1454 1457 1459 1462 1465 1468 1470 1472 1474 1476 1478 1480 1482 1484 1485 1487 1489 1491 1492 1494 1496 1497 1498 1501 1503 1504 1506 1508 1510 1512 1513 1515 1516 1517 1518 1519 1520 1521 1522 1523 1523 1524 1524 1525 1526 1527 1528 1529 1529 1530 1531 1532 1534 1536 1538 1539 1541 1542 1544 1545 1545 1544 1543 1544 1545 1544 1543 1543 1542 1540 1539 1541 1543 1545
1427 1427 1429 1431 1433 1435 1437 1439 1441 1444 1447 1450 1453 1456 1458 1461 1463 1465 1466 1468 1470 1472 1474 1476 1478 1480 1482 1485 1487 1489 1490 1491 1492 1493 1495 1497 1499 1501 1503 1505 1507 1509 1510 1511 1513 1514 1515 1516 1517 1518 1519 1520 1520 1521 1521 1523 1523 1524 1526 1527 1528 1529 1531 1533 1534 1536 1537 1538 1539 1540 1540 1540 1540 1540 1541 1541 1541 1541 1541 1541 1539 1538 1539 1541 1542
1422 1423 1424 1426 1427 1429 1432 1434 1437 1440 1443 1447 1450 1452 1455 1457 1460 1461 1463 1465 1467 1469 1470 1471 1473 1475 1478 1480 1482 1484 1484 1485 1486 1488 1490 1492 1495 1496 1498 1501 1503 1504 1506 1508 1510 1510 1511 1512 1513 1514 1515 1516 1516 1517 1518 1519 1520 1521 1523 1524 1526 1527 1528 1530 1531 1532 1533 1534 1534 1534 1534 1533 1533 1534 1535 1535 1535 1536 1537 1537 1536 1536 1537 1538 1539
1418 1418 1419 1421 1422 1424 1427 1430 1433 1436 1439 1443 1447 1449 1451 1454 1457 1458 1461 1463 1465 1467 1469 1470 1471 1473 1475 1476 1477 1478 1479 1480 1482 1485 1487 1489 1491 1493 1495 1498 1500 1501 1503 1505 1506 1506 1507 1508 1510 1510 1511 1511 1512 1513 1514 1515 1516 1518 1519 1521 1522 1523 1525 1526 1527 1527 1527 1526 1526 1526 1526 1525 1525 1528 1531 1532 1532 1533 1534 1534 1533 1533 1534 1536 1537
1413 1413 1414 1416 1418 1420 1423 1426 1429 1433 1436 1440 1443 1445 1448 1451 1453 1455 1457 1459 1462 1464 1466 1468 1471 1472 1473 1473 1474 1476 1478 1480 1481 1483 1484 1486 1488 1490 1492 1494 1496 1498 1500 1501 1501 1502 1503 1504 1505 1506 1507 1507 1508 1509 1510 1511 1512 1514 1516 1517 1518 1519 1520 1521 1521 1520 1519 1519 1521 1522 1522 1521 1522 1524 1527 1528 1530 1532 1533 1532 1531 1531 1532 1534 1535
1410 1411 1412 1413 1415 1418 1421 1424 1426 1430 1434 1437 1439 1442 1445 1447 1450 1452 1454 1456 1458 1461 1463 1466 1468 1469 1471 1472 1473 1474 1476 1477 1479 1481 1482 1484 1486 1487 1489 1491 1492 1494 1496 1496 1496 1497 1499 1500 1501 1502 1503 1503 1504 1505 1506 1507 1508 1509 1510 1512 1513 1513 1515 1516 1515 1514 1514 1517 1521 1523 1521 1520 1521 1522 1524 1526 1528 1530 1531 1531 1530 1530 1531 1533 1534
1408 1408 1409 1410 1412 1415 1418 1421 1424 1428 1432 1435 1437 1438 1441 1444 1446 1449 1451 1453 1455 1457 1460 1463 1465 1466 1468 1470 1471 1472 1474 1475 1477 1479 1480 1481 1483 1484 1486 1487 1489 1490 1491 1491 1492 1493 1494 1496 1497 1498 1499 1499 1500 1501 1502 1503 1503 1504 1505 1506 1506 1507 1511 1514 1513 1511 1513 1516 1520 1522 1521 1520 1520 1521 1522 1524 1526 1528 1529 1530 1530 1530 1531 1532 1533
1405 1405 1406 1408 1409 1411 1413 1415 1419 1424 1430 1435 1438 1438 1440 1442 1445 1447 1448 1450 1452 1454 1456 1458 1461 1463 1465 1467 1468 1470 1472 1474 1475 1476 1478 1479 1481 1482 1483 1484 1485 1485 1485 1486 1488 1489 1491 1492 1493 1494 1495 1496 1497 1498 1498 1498 1499 1500 1501 1502 1502 1504 1509 1512 1512 1511 1512 1514 1516 1518 1519 1519 1519 1520 1521 1523 1524 1526 1528 1529 1529 1530 1530 1531 1533
1403 1403 1404 1406 1408 1410 1411 1412 1415 1418 1422 1427 1433 1437 1439 1440 1442 1443 1445 1447 1448 1450 1452 1454 1457 1460 1462 1464 1466 1468 1470 1471 1473 1474 1476 1477 1478 1479 1480 1480 1480 1480 1481 1483 1485 1487 1488 1489 1490 1491 1492 1493 1494 1495 1495 1496 1497 1497 1498 1501 1504 1506 1509 1511 1510 1509 1510 1512 1513 1514 1516 1517 1518 1519 1521 1523 1524 1525 1527 1528 1528 1529 1530 1531 1532
1400 1399 1400 1402 1405 1408 1411 1413 1415 1417 1418 1421 1425 1429 1434 1437 1438 1439 1441 1444 1446 1448 1450 1452 1454 1457 1459 1461 1463 1465 1467 1469 1471 1472 1474 1475 1476 1476 1476 1476 1476 1477 1478 1481 1483 1485 1486 1487 1487 1489 1489 1490 1491 1492 1492 1493 1493 1492 1494 1500 1505 1505 1506 1508 1507 1507 1509 1510 1511 1511 1513 1515 1517 1518 1520 1522 1524 1525 1527 1528 1528 1528 1529 1530 1531
1397 1396 1397 1400 1403 1405 1408 1411 1413 1415 1417 1419 1421 1423 1427 1432 1436 1437 1439 1442 1444 1445 1447 1449 1451 1453 1455 1458 1460 1462 1464 1466 1468 1470 1471 1473 1473 1474 1474 1474 1473 1474 1476 1479 1480 1481 1483 1484 1485 1485 1486 1487 1488 1488 1489 1490 1490 1488 1491 1497 1501 1500 1500 1503 1505 1506 1508 1509 1509 1509 1511 1513 1515 1516 1518 1521 1523 1524 1525 1526 1526 1527 1528 1529 1529
1394 1393 1394 1397 1400 1401 1403 1406 1409 1412 1414 1416 1418 1420 1422 1425 1431 1436 1438 1438 1440 1442 1444 1447 1449 1450 1452 1454 1456 1459 1461 1463 1465 1467 1468 1469 1470 1470 1471 1471 1471 1471 1473 1475 1476 1478 1479 1481 1481 1482 1483 1484 1485 1486 1486 1487 1487 1486 1489 1493 1496 1497 1499 1501 1502 1503 1505 1506 1507 1508 1509 1512 1514 1516 1517 1518 1519 1521 1522 1523 1524 1525 1526 1526 1526
1391 1390 1392 1395 1397 1398 1401 1404 1407 1410 1411 1413 1415 1418 1419 1419 1425 1434 1437 1436 1437 1440 1442 1444 1445 1447 1449 1451 1454 1456 1458 1460 1462 1463 1465 1466 1466 1467 1467 1468 1468 1469 1470 1471 1473 1474 1476 1477 1478 1479 1481 1482 1483 1483 1483 1484 1484 1485 1487 1490 1493 1495 1496 1498 1499 1501 1503 1505 1506 1507 1509 1511 1513 1514 1515 1516 1517 1518 1520 1521 1522 1522 1523 1523 1523
1390 1390 1391 1392 1394 1395 1399 1402 1404 1405 1408 1410 1412 1415 1417 1417 1420 1428 1434 1434 1434 1435 1438 1439 1442 1444 1447 1450 1452 1453 1455 1457 1458 1460 1461 1462 1463 1464 1465 1466 1466 1467 1467 1468 1469 1470 1472 1474 1475 1477 1478 1479 1480 1480 1481 1482 1483 1484 1485 1488 1491 1492 1493 1494 1496 1499 1502 1504 1506 1507 1509 1510 1511 1512 1514 1515 1516 1516 1517 1518 1519 1520 1520 1521 1521
1389 1389 1390 1390 1390 1391 1393 1396 1399 1401 1404 1407 1409 1412 1415 1416 1417 1422 1428 1429 1429 1431 1434 1436 1439 1443 1445 1447 1449 1450 1452 1453 1455 1457 1458 1459 1460 1462 1462 1463 1464 1464 1464 1465 1466 1467 1468 1470 1472 1474 1475 1477 1478 1479 1480 1481 1482 1483 1484 1486 1488 1489 1490 1491 1494 1498 1501 1503 1505 1506 1507 1509 1510 1511 1513 1514 1514 1515 1516 1516 1517 1517 1518 1518 1518
1388 1388 1389 1389 1389 1388 1389 1392 1396 1399 1402 1404 1406 1409 1413 1415 1416 1418 1421 1422 1424 1427 1431 1434 1437 1440 1442 1444 1446 1447 1449 1451 1452 1454 1455 1456 1458 1459 1460 1461 1461 1462 1462 1463 1464 1465 1466 1467 1469 1471 1473 1475 1476 1477 1478 1480 1481 1482 1483 1484 1486 1487 1488 1490 1493 1496 1499 1501 1503 1504 1505 1506 1508 1509 1510 1511 1511 1512 1513 1513 1514 1514 1515 1515 1515
1389 1389 1389 1390 1390 1390 1390 1392 1395 1398 1400 1402 1404 1408 1411 1414 1415 1417 1418 1419 1421 1423 1426 1430 1433 1436 1439 1442 1443 1445 1447 1449 1450 1451 1453 1454 1455 1457 1458 1459 1459 1459 1460 1461 1462 1464 1465 1466 1468 1469 1471 1472 1474 1475 1477 1479 1480 1482 1483 1485 1486 1487 1489 1491 1493 1495 1497 1499 1501 1502 1503 1505 1506 1507 1508 1508 1509 1510 1510 1511 1511 1512 1512 1512 1512
1393 1392 1391 1391 1392 1392 1391 1391 1392 1396 1399 1400 1402 1406 1410 1412 1414 1415 1417 1418 1419 1421 1424 1427 1431 1434 1437 1440 1442 1445 1447 1448 1450 1451 1452 1453 1455 1456 1457 1458 1458 1459 1460 1461 1462 1463 1465 1466 1467 1468 1470 1471 1473 1475 1477 1479 1481 1483 1484 1485 1487 1488 1490 1491 1493 1495 1496 1498 1500 1501 1503 1504 1505 1506 1506 1507 1507 1508 1508 1509 1509 1510 1510 1510 1510
1400 1398 1396 1394 1395 1395 1394 1392 1392 1395 1398 1399 1401 1405 1409 1411 1413 1414 1415 1417 1419 1421 1423 1426 1430 1433 1436 1439 1442 1444 1446 1448 1449 1450 1452 1453 1454 1455 1456 1457 1458 1459 1460 1461 1462 1463 1464 1466 1467 1469 1471 1473 1474 1476 1478 1480 1481 1483 1485 1486 1488 1489 1491 1492 1494 1495 1497 1498 1500 1501 1502 1503 1503 1504 1504 1504 1505 1506 1506 1507 1507 1508 1507 1507 1506
1406 1404 1401 1400 1400 1399 1399 1398 1398 1399 1401 1403 1405 1407 1410 1413 1415 1417 1417 1417 1418 1421 1424 1427 1430 1433 1435 1438 1441 1443 1445 1447 1449 1450 1451 1452 1453 1454 1455 1457 1458 1459 1460 1462 1463 1464 1465 1467 1468 1470 1472 1474 1475 1477 1479 1481 1482 1484 1485 1487 1489 1490 1492 1493 1494 1496 1497 1498 1499 1500 1500 1501 1501 1502 1502 1502 1502 1503 1503 1504 1504 1504 1504 1503 1502
1410 1408 1406 1406 1405 1405 1404 1404 1404 1404 1405 1406 1408 1409 1411 1414 1418 1420 1419 1419 1420 1422 1425 1428 1430 1433 1435 1437 1440 1443 1445 1447 1448 1450 1452 1453 1454 1456 1457 1458 1459 1460 1462 1463 1464 1465 1466 1468 1469 1471 1473 1475 1476 1477 1479 1481 1483 1485 1486 1488 1490 1491 1492 1493 1494 1495 1496 1497 1497 1498 1498 1498 1499 1499 1500 1500 1500 1500 1500 1500 1500 1500 1500 1499 1499
1414 1412 1411 1411 1411 1410 1410 1410 1411 1411 1411 1411 1411 1412 1414 1416 1419 1420 1421 1422 1424 1425 1427 1429 1432 1434 1436 1438 1441 1444 1446 1447 1449 1450 1452 1454 1455 1457 1458 1459 1460 1462 1463 1465 1466 1467 1469 1470 1471 1472 1474 1476 1477 1478 1480 1482 1483 1485 1486 1488 1489 1490 1491 1493 1493 1494 1495 1495 1496 1496 1496 1496 1497 1497 1497 1497 1497 1497 1497 1497 1497 1497 1496 1496 1495
1417 1416 1415 1415 1415 1414 1414 1415 1416 1417 1417 1417 1417 1418 1419 1420 1422 1422 1422 1424 1426 1429 1431 1432 1435 1437 1439 1442 1445 1447 1449 1450 1452 1453 1454 1456 1457 1458 1459 1459 1460 1461 1463 1465 1467 1468 1470 1471 1472 1473 1475 1477 1478 1480 1481 1482 1483 1484 1486 1487 1488 1489 1490 1491 1492 1492 1493 1493 1494 1494 1494 1494 1495 1495 1495 1495 1495 1495 1495 1495 1494 1494 1493 1493 1492
1420 1419 1418 1418 1418 1419 1419 1420 1420 1420 1420 1420 1420 1420 1421 1423 1424 1425 1425 1427 1429 1432 1434 1435 1437 1439 1442 1445 1447 1450 1451 1453 1455 1456 1457 1457 1458 1459 1460 1460 1460 1461 1463 1466 1468 1470 1471 1472 1473 1474 1476 1478 1479 1480 1481 1482 1483 1484 1486 1487 1488 1488 1489 1489 1490 1490 1491 1491 1492 1492 1492 1492 1493 1493 1494 1494 1493 1493 1493 1492 1492 1491 1491 1491 1490
1423 1421 1421 1421 1421 1422 1423 1423 1423 1422 1422 1421 1421 1421 1422 1423 1426 1428 1430 1432 1433 1435 1436 1436 1438 1440 1443 1446 1448 1450 1452 1454 1455 1456 1457 1458 1459 1460 1461 1461 1462 1463 1466 1468 1471 1472 1473 1474 1475 1476 1477 1479 1480 1481 1482 1482 1483 1484 1485 1486 1487 1487 1488 1488 1489 1489 1490 1490 1491 1491 1491 1491 1491 1492 1493 1493 1492 1492 1492 1491 1490 1489 1489 1488 1487